Weather in Kamenskoe

Russia / Republic of Crimea     45˚16′51″N   35˚31′31″E
temp.,
°C
wind,
m/s
gust,
m/s
humid.,
%
clouds,
%
prec.,
mm/h
press.,
hPa
HPBL,
m
16 january, sat
sat1600:00wnw7107529 0.0 1014581
03:00−1˚wnw697115 0.0 1016549
06:00−2˚wnw68800 0.0 1016446
09:00−2˚nw467425 0.0 1017418
12:00−1˚n336331 0.0 1018474
15:00ne446430 0.0 1015566
18:00−1˚ene457198 0.0 1015344
21:00−1˚ene477099 0.0 1013462
17 january, sun
sun1700:00ene61072100 0.0 1012611
03:00ne71275100 0.0 1009737
06:00ne91375100 0.0 1008867
09:00−1˚ne101395100 1.3 1007792
12:00nne101394100 1.8 1008872
15:00−1˚nne111394100 2.9 1008890
18:00−2˚nne91290100 0.8 1009804
21:00−2˚n81089100 1.3 1011739
18 january, mon
mon1800:00−2˚n6893100 0.7 1012548
03:00−3˚nw7991100 1.6 1014573
06:00−5˚wnw81090100 0.3 1015575
09:00−6˚wnw7889100 0.6 1017530
12:00−6˚wnw6876100 0.1 1018596
15:00−4˚nw346887 0.1 1017574
18:00−6˚e017154 0.0 1019187
21:00−6˚ssw017278 0.0 1019298
19 january, tue
tue1900:00−5˚wnw7886100 1.1 1019500
03:00−7˚wnw578294 1.2 1019355
06:00−7˚wnw687867 0.0 1019411
09:00−8˚wnw697735 0.0 1021445
12:00−6˚wnw79720 0.0 1022811
15:00−6˚wnw687312 0.0 1021952
18:00−7˚wnw577776 0.0 1022413
21:00−7˚wnw698080 0.0 1024462
20 january, wed
wed2000:00−7˚wnw687822 0.0 1024339
03:00−7˚wnw577612 0.0 1025303
06:00−7˚wnw45795 0.0 1025269
09:00−7˚w33825 0.0 1026204
12:00−4˚wsw11740 0.0 1027228
15:00−2˚se23740 0.0 1026286
18:00−3˚se468468 0.0 1027187
21:00sse698370 0.0 1027304